Regional Weather Roundup
Issued by NWS

Home | Current Version | Previous Version | Graphics & Text | Print | Product List | Glossary On
Versions: 1 2 3 4 5 6 7 8 9 10 11 12 13 14 15 16 17 18 19 20 21 22 23 24 25 26 27 28 29 30 31 32 33 34 35 36 37 38 39 40 41 42 43 44 45 46 47 48
000
ASUS45 KBOI 292010
RWRID

IDAHO REGIONAL WEATHER ROUNDUP
NATIONAL WEATHER SERVICE BOISE ID
200 PM MDT WED JUL 29 2015

NOTE: "FAIR" INDICATES FEW OR NO CLOUDS BELOW 12000 FEET
WITH NO SIGNIFICANT WEATHER AND/OR OBSTRUCTIONS TO VISIBILITY

IDZ012-014-292100-
SOUTHWEST IDAHO


CITY           SKY/WX    TMP DP  RH WIND       PRES   REMARKS
BOISE          SUNNY     84  30  14 SE3       30.22F
CALDWELL       SUNNY     84  37  18 N6        30.23F
MOUNTAIN HOME  SUNNY     82  28  14 VRB2      30.22F
$$

IDZ016-017-292100-
SOUTHCENTRAL IDAHO


CITY           SKY/WX    TMP DP  RH WIND       PRES   REMARKS
BURLEY         SUNNY     78  31  17 N7        30.27F
JEROME         SUNNY     80  27  14 VRB3      30.28F
TWIN FALLS     SUNNY     81  30  15 NE7       30.25F
$$

IDZ019>023-292100-
SOUTHEAST IDAHO


CITY           SKY/WX    TMP DP  RH WIND       PRES   REMARKS
IDAHO FALLS    SUNNY     76  34  21 SW7       30.33F
POCATELLO      SUNNY     79  34  19 N3        30.31F
REXBURG        SUNNY     72  32  23 NW3       30.34F
$$

IDZ006-010-011-018-031-032-292100-
CENTRAL IDAHO MOUNTAINS


CITY           SKY/WX    TMP DP  RH WIND       PRES   REMARKS
MCCALL         SUNNY     73  34  23 VRB3      30.31F
HAILEY         SUNNY     72  39  30 SE8       30.35F
STANLEY          N/A     73  33  23 VRB5      30.39F
SALMON         SUNNY     72  43  35 N6        30.27F
CHALLIS        SUNNY     76  35  22 MISG      30.31F
$$

IDZ002-004-006-007-026-292100-
NORTHERN IDAHO


CITY           SKY/WX    TMP DP  RH WIND       PRES   REMARKS
LEWISTON       SUNNY     86  39  19 VRB3      30.15F
LOWELL           N/A     86  43  22 VRB3      30.16F
COEUR D`ALENE  SUNNY     82  43  24 S7        30.19F
MULLAN PASS    SUNNY     66  35  31 VRB6      30.37F
$$


USA.gov is the U.S. government's official web portal to all federal, state and local government web resources and services.